Location: Newark
(43.6583°N, 1.6617°E)
Time: 18:42:56
(UTC+00:00)

Transit 4A - Pass Details

Date: 26 August 2019
Orbit: 865 x 980 km, 66.8° (Epoch: 15 September)

Event Time Altitude Azimuth Distance (km) Brightness Sun altitude
Rises 16:40:49 0° 197° (SSW) 3,656 11.3 20.5°
Reaches altitude 10° 16:43:23 10° 194° (SSW) 2,718 10.7 20.1°
Maximum altitude 16:49:39 62° 116° (ESE) 1,096 8.3 18.9°
Drops below altitude 10° 16:55:57 10° 37° (NE) 2,726 10.0 17.8°
Sets 16:58:32 0° 35° (NE) 3,668 10.7 17.3°
